Regional Weather Roundup
Issued by NWS

Home | Current Version | Previous Version | Text Only | Print | Product List | Glossary Off
Versions: 1 2 3 4 5 6 7 8 9 10 11 12 13 14 15 16 17 18 19 20 21 22 23 24 25 26 27 28 29 30 31 32 33 34 35 36 37 38 39 40 41 42 43 44 45 46 47 48 49 50

159
ASUS43 KMKX 031911
RWRWI

WISCONSIN REGIONAL WEATHER ROUNDUP
NATIONAL WEATHER SERVICE MILWAUKEE/SULLIVAN WI
200 PM CDT TUE MAY 03 2016

NOTE: "FAIR" INDICATES FEW OR NO CLOUDS BELOW 12,000 FEET WITH NO
SIGNIFICANT WEATHER AND/OR OBSTRUCTIONS TO VISIBILITY.

WIZ001-002-006>008-014>016-023>028-032000-
NORTHWEST WISCONSIN

CITY           SKY/WX    TMP DP  RH WIND       PRES   REMARKS
SUPERIOR ARPT  PTSUNNY   67  37  33 NW20      29.66F
ASHLAND        CLOUDY    56  43  61 N13G23    29.70R
HAYWARD        LGT RAIN  64  33  31 SW18G32   29.68F
SIREN          CLOUDY    66  34  31 W18G25    29.71F
CUMBERLAND     CLOUDY    63  32  31 W18G26    29.73F
RICE LAKE      CLOUDY    67  33  28 W20G28    29.74F
CHETEK         CLOUDY    68  37  32 W16G24    29.73F
LADYSMITH      CLOUDY    65  34  31 W21G28    29.73F
EAU CLAIRE     MOSUNNY   68  34  28 W17G28    29.74F
MENOMONIE      PTSUNNY   69  34  27 W18G28    29.76F
NEW RICHMOND   MOSUNNY   68  36  30 W20G32    29.76F
OSCEOLA        MOSUNNY   68  36  30 W25       29.78F
$$

WIZ003>005-009-010-017-018-032000-
NORTH CENTRAL WISCONSIN

CITY           SKY/WX    TMP DP  RH WIND       PRES   REMARKS
MANITOWISH WTR RAIN      52  41  65 W6        29.71F
ARBOR VITAE    LGT RAIN  57  39  51 NW9G18    29.71F
WOODRUFF       LGT RAIN  57  39  51 NW9G18    29.71F
RHINELANDER    CLOUDY    63  33  32 W14G26    29.70F
EAGLE RIVER    DRIZZLE   56  36  45 W13G24    29.70F
LAND O LAKES   LGT RAIN  53  41  64 W9G16     29.72F
PHILLIPS       CLOUDY    62  32  32 W10G21    29.69F
TOMAHAWK       CLOUDY    63  30  28 W14G25    29.70F
MEDFORD        CLOUDY    64  36  35 W13G24    29.72F
MERRILL        PTSUNNY   67  36  31 W18G24    29.71F
$$

WIZ029-030-035-036-043>047-032000-
CENTRAL WISCONSIN

CITY           SKY/WX    TMP DP  RH WIND       PRES   REMARKS
WAUSAU         PTSUNNY   69  32  25 W21G29    29.70F
MOSINEE        PTSUNNY   64  30  27 W14G28    29.74F
MARSHFIELD     PTSUNNY   67  30  25 W17G24    29.74F
STEVENS POINT  MOSUNNY   66  31  26 W17G25    29.74F
WAUPACA        MOSUNNY   70  29  21 SW15G21   29.75F
WAUTOMA        PTSUNNY   68  33  27 W16G26    29.77
WISC RAPIDS    PTSUNNY   68  29  23 W15G22    29.77F
CAMP DOUGLAS   PTSUNNY   68  37  32 W12G23    29.78F
$$

WIZ011>013-019>022-031-037>040-048>050-032000-
NORTHEAST WISCONSIN

CITY           SKY/WX    TMP DP  RH WIND       PRES   REMARKS
ANTIGO         CLOUDY    62  34  35 W20G28    29.71F
SHAWANO        CLOUDY    71  31  23 W15G21    29.71F
OCONTO         CLOUDY    69  34  27 SW21      29.69F
STURGEON BAY   CLOUDY    68  36  30 SW13G23   29.72F
GREEN BAY      CLOUDY    68  35  29 W18G28    29.72F
MANITOWOC      CLOUDY    68  32  26 MISG      29.75F
APPLETON       PTSUNNY   68  27  21 W18G25    29.74F
CLINTONVILLE   CLOUDY    68  30  24 W12G20    29.72F
OSHKOSH        PTSUNNY   67  34  29 W14       29.76F
$$

WIZ032>034-041-042-053>061-032000-
SOUTHWEST WISCONSIN

CITY           SKY/WX    TMP DP  RH WIND       PRES   REMARKS
LA CROSSE      PTSUNNY   72  38  29 W10G23    29.80F
SPARTA         CLOUDY    68  36  30 W16       29.80F
VIROQUA        PTSUNNY   66  35  32 W15       29.83F
BOSCOBEL       LGT RAIN  68  37  32 W16G22    29.84F
PRAIRIE DU CHI MOSUNNY   67  35  29 W16       29.84F
PLATTEVILLE    MOSUNNY   66  38  34 W17       29.87F
$$

WIZ056-057-062-063-064-067-068-032000-
SOUTH CENTRAL WISCONSIN

CITY           SKY/WX    TMP DP  RH WIND       PRES   REMARKS
REEDSBURG      CLOUDY    65  39  38 W14G22    29.81F
BARABOO/DELLS  CLOUDY    66  32  28 W14       29.80F
LONE ROCK      CLOUDY    68  37  32 W20G26    29.83F
MINERAL POINT  PTSUNNY   64  32  29 W15       29.85F
MADISON        PTSUNNY   67  36  31 W12G18    29.82F
MIDDLETON      MOSUNNY   67  38  34 SW10G22   29.83F
WATERTOWN      PTSUNNY   67  37  32 W13G23    29.81F
MONROE         MOSUNNY   64  34  32 W23G32    29.86F
JANESVILLE     PTSUNNY   68  36  30 W12G20    29.85F
$$

WIZ051-052-058>065-066-070>072-032000-
SOUTHEAST WISCONSIN

CITY           SKY/WX    TMP DP  RH WIND       PRES   REMARKS
MILWAUKEE      CLOUDY    65  32  29 W10G22    29.82F
WAUKESHA       PTSUNNY   63  34  34 W18       29.83F
MILWAUKEE/TIMM SUNNY     68  32  26 W20G25    29.81F
RACINE         CLOUDY    67  34  29 W9        29.84F
BURLINGTON     MOSUNNY   66  34  30 W13G18    29.84F
KENOSHA        CLOUDY    67  40  37 W14       29.84F
FOND DU LAC    CLOUDY    66  34  30 W15G21    29.78F
SHEBOYGAN      CLOUDY    66  35  31 W15       29.78F
WEST BEND      PTSUNNY   64  32  29 W13G25    29.80F
JUNEAU         PTSUNNY   64  36  35 W16G24    29.82F
$$

LSZ147-162-032000-
LAKE SUPERIOR

STATION/POSITION TIME  TEMP    WIND        PRES    WAVE
                       AIR SEA DIR/SP/G            HT/PER
                 (UTC) (F)     (DEG/KT/KT) (MB)    (FT/S)
W MID LAKE BUOY  1850   42 37  230/ 14/ 16 1004.0F   3/ 5
DEVILS ISLAND    1900   46     220/ 11/ 14 1004.9F
SAXON HARBOR     1900          360/  9     1006.1R
$$

LMZ867-665-643>646-032000-
LAKE MICHIGAN

STATION/POSITION TIME  TEMP    WIND        PRES    WAVE
                       AIR SEA DIR/SP/G            HT/PER
                 (UTC) (F)     (DEG/KT/KT) (MB)    (FT/S)
CHAMBERS ISLAND  1840   60     160/  5/  9 1005.4F
N MID LAKE BUOY  1850   42 39  180/ 17/ 21 1005.1F   2/ 4
NORTHPORT PIER   1800   68     230/ 10/ 15 1005.8F
ALGOMA LAKESHORE 1815          270/ 21/ 28   N/A
KEWAUNEE LAKESHO 1800   67     240/ 10/ 16 1007.3F
SHEBOYGAN LAKESH 1900   66     260/ 14/ 18 1008.4F
PORT WASHINGTON  1820   68     240/ 14/ 23 1010.2F
S MID LAKE BUOY  1850   45 42  170/ 10/ 12 1010.9F   1
KENOSHA   LAKESH 1900   65     230/ 11/ 17 1010.2F
$$

TC  - TEMPERATURE IN CELSIUS
VSB - VISIBILITY IN STATUTE MILES
WCI - WIND CHILL INDEX
HX  - HEAT INDEX





USA.gov is the U.S. government's official web portal to all federal, state and local government web resources and services.